^^
Station Historical Data
 
Daily Summary for April 24, 2017 Units:  Metric    English   Both
« Previous Day
Next Day »
Daily Weekly Monthly Yearly Custom
  Current: High: Low: Average:
Temperature: 16.4 °C 19.2 °C 15.7 °C 16.9 °C
Dew Point: 8.9 °C 8.9 °C 7.3 °C 8.2 °C
Humidity: 61% 63% 49% 56%
Wind Speed: 0km/h 7.9km/h 0km/h 0.8km/h
Wind Gust: 3.2km/h 14.5km/h - -
WindCalm - - North
Pressure: 1015.5 hPa 1015.5 hPa 1014.8 hPa -
Precipitation: 0 mm      
Historical Graphs
 
 
Tabular Data for April 24, 2017
Time Temperature Dew Point Pressure Wind Wind Speed Wind Gust Humidity Rainfall Rate (Hourly) solar Conditions
00:14 19.2 °C 8.5 °C 1014.8 hPa Calm   9.7 km/h 50% 0 mm 0.0 W/m2
00:19 19.1 °C 8.4 °C 1014.8 hPa Calm     50% 0 mm 0.0 W/m2
00:24 18.8 °C 8.2 °C 1014.8 hPa Calm     50% 0 mm 0.0 W/m2
00:29 18.6 °C 8.3 °C 1014.8 hPa Calm     51% 0 mm 0.0 W/m2
00:34 18.5 °C 8.2 °C 1014.8 hPa Calm     51% 0 mm 0.0 W/m2
00:39 18.6 °C 8.3 °C 1015.1 hPa Calm     51% 0 mm 0.0 W/m2
00:45 18.6 °C 8.3 °C 1014.8 hPa Calm     51% 0 mm 0.0 W/m2
00:50 18.6 °C 8 °C 1015.1 hPa Calm     50% 0 mm 0.0 W/m2
00:55 18.6 °C 8 °C 1015.1 hPa Calm     50% 0 mm 0.0 W/m2
01:00 18.5 °C 7.9 °C 1015.1 hPa Calm     50% 0 mm 0.0 W/m2
01:05 18.5 °C 7.9 °C 1015.1 hPa Calm     50% 0 mm 0.0 W/m2
01:10 18.4 °C 7.5 °C 1015.1 hPa Calm     49% 0 mm 0.0 W/m2
01:15 18.2 °C 7.6 °C 1015.1 hPa Calm     50% 0 mm 0.0 W/m2
01:21 18 °C 7.7 °C 1015.1 hPa Calm     51% 0 mm 0.0 W/m2
01:26 17.8 °C 7.5 °C 1015.1 hPa Calm     51% 0 mm 0.0 W/m2
01:31 17.8 °C 7.8 °C 1015.1 hPa Calm     52% 0 mm 0.0 W/m2
01:41 17.7 °C 7.7 °C 1015.1 hPa Calm     52% 0 mm 0.0 W/m2
01:47 17.7 °C 8 °C 1015.1 hPa Calm     53% 0 mm 0.0 W/m2
01:52 17.6 °C 7.9 °C 1015.1 hPa Calm     53% 0 mm 0.0 W/m2
01:57 17.3 °C 7.6 °C 1015.1 hPa Calm     53% 0 mm 0.0 W/m2
02:02 17 °C 7.3 °C 1014.8 hPa Calm     53% 0 mm 0.0 W/m2
02:07 16.7 °C 7.6 °C 1015.1 hPa Calm     55% 0 mm 0.0 W/m2
02:12 16.6 °C 7.8 °C 1015.1 hPa Calm     56% 0 mm 0.0 W/m2
02:17 16.5 °C 7.7 °C 1014.8 hPa Calm     56% 0 mm 0.0 W/m2
02:23 16.3 °C 7.8 °C 1015.1 hPa Calm     57% 0 mm 0.0 W/m2
02:28 16.4 °C 8.1 °C 1014.8 hPa North 1.4 km/h 1.6 km/h 58% 0 mm 0.0 W/m2
02:33 16.8 °C 8.2 °C 1014.8 hPa Calm     57% 0 mm 0.0 W/m2
02:38 16.9 °C 8.1 °C 1014.8 hPa Calm     56% 0 mm 0.0 W/m2
02:44 16.7 °C 7.9 °C 1014.8 hPa Calm   1.6 km/h 56% 0 mm 0.0 W/m2
02:49 16.6 °C 8 °C 1014.8 hPa Calm   12.9 km/h 57% 0 mm 0.0 W/m2
02:54 16.8 °C 8.2 °C 1014.8 hPa Calm   11.3 km/h 57% 0 mm 0.0 W/m2
02:59 16.9 °C 8.1 °C 1014.8 hPa Calm   8 km/h 56% 0 mm 0.0 W/m2
03:09 16.8 °C 8 °C 1014.8 hPa Calm     56% 0 mm 0.0 W/m2
03:14 16.6 °C 7.8 °C 1014.8 hPa Calm   6.4 km/h 56% 0 mm 0.0 W/m2
03:24 16.2 °C 7.7 °C 1014.8 hPa North 7.9 km/h 9.7 km/h 57% 0 mm 0.0 W/m2
03:29 16 °C 7.7 °C 1014.8 hPa Calm   11.3 km/h 58% 0 mm 0.0 W/m2
03:34 15.8 °C 7.8 °C 1014.8 hPa Calm   1.6 km/h 59% 0 mm 0.0 W/m2
03:40 15.7 °C 8 °C 1014.8 hPa Calm     60% 0 mm 0.0 W/m2
03:50 15.8 °C 8.3 °C 1014.8 hPa North 1.4 km/h 1.6 km/h 61% 0 mm 0.0 W/m2
03:55 16.1 °C 8.6 °C 1014.8 hPa North 6.4 km/h 6.4 km/h 61% 0 mm 0.0 W/m2
04:00 16.3 °C 8.5 °C 1014.8 hPa Calm     60% 0 mm 0.0 W/m2
04:05 16.4 °C 8.6 °C 1014.8 hPa Calm     60% 0 mm 0.0 W/m2
04:10 16.6 °C 8.8 °C 1014.8 hPa Calm     60% 0 mm 0.0 W/m2
04:15 16.6 °C 8.8 °C 1014.8 hPa Calm     60% 0 mm 0.0 W/m2
04:20 16.5 °C 8.7 °C 1014.8 hPa Calm     60% 0 mm 0.0 W/m2
04:26 16.2 °C 8.4 °C 1014.8 hPa Calm     60% 0 mm 0.0 W/m2
04:31 16 °C 8.5 °C 1014.8 hPa Calm     61% 0 mm 0.0 W/m2
04:36 16 °C 8.7 °C 1014.8 hPa Calm     62% 0 mm 0.0 W/m2
04:51 15.7 °C 8.7 °C 1014.8 hPa Calm   11.3 km/h 63% 0 mm 0.0 W/m2
05:07 15.9 °C 8.4 °C 1015.1 hPa North 6.4 km/h 11.3 km/h 61% 0 mm 0.0 W/m2
05:12 15.9 °C 8.4 °C 1014.8 hPa Calm     61% 0 mm 0.0 W/m2
05:22 15.7 °C 8.2 °C 1015.1 hPa North 1.4 km/h 11.3 km/h 61% 0 mm 0.0 W/m2
05:37 15.9 °C 8.4 °C 1015.1 hPa North 6.4 km/h 12.9 km/h 61% 0 mm 0.0 W/m2
05:42 16 °C 8.5 °C 1015.1 hPa North 6.4 km/h 14.5 km/h 61% 0 mm 0.0 W/m2
05:47 16.1 °C 8.3 °C 1015.1 hPa Calm   12.9 km/h 60% 0 mm 0.0 W/m2
05:52 16.2 °C 8.7 °C 1015.1 hPa North 6.4 km/h 12.9 km/h 61% 0 mm 0.0 W/m2
05:58 16.3 °C 8.5 °C 1015.1 hPa Calm   14.5 km/h 60% 0 mm 0.0 W/m2
06:03 16.3 °C 8.5 °C 1015.1 hPa Calm     60% 0 mm 0.0 W/m2
06:08 16.3 °C 8.5 °C 1015.1 hPa Calm     60% 0 mm 0.0 W/m2
06:13 16.3 °C 8.8 °C 1015.1 hPa North 1.4 km/h 11.3 km/h 61% 0 mm 5.0 W/m2
06:23 16.4 °C 8.9 °C 1015.5 hPa Calm   3.2 km/h 61% 0 mm 12.0 W/m2
Canyon Roadhouse, Fishriver Canyon, Namibia
Compliments of Weather Underground - 3 mb